{"data":{"norad_id":65353,"intl_designator":"2025-190C","name":"STARLINK-34828","alt_names":[],"object_type":"PAYLOAD","status":"ACTIVE","operator":null,"country":"US","launch_date":"2025-08-28","launch_site_code":"AFETR","launch_vehicle":null,"mission":null,"orbit_class":"UNKNOWN","rcs_meters":null,"size_class":null,"mass_kg":null,"dimensions":null,"purposes":["comms"],"wikipedia_slug":null,"has_3d_model":false,"image_url":null,"decayed_at":null,"tle_current":{"epoch":"2026-09-20T21:50:24.126144Z","epoch_age_seconds":82156,"freshness":"FRESH","line1":"1 65353U 25190C   26263.91000146  .00031623  00000+0  94396-3 0  9997","line2":"2 65353  53.1607 340.0325 0000962  70.5923 289.5183 15.34371771 59667","mean_motion":15.34371771,"eccentricity":9.62e-5,"inclination_deg":53.1607,"raan_deg":340.0325,"arg_perigee_deg":70.5923,"mean_anomaly_deg":289.5183,"bstar":0.00094396,"rev_number":5966,"period_min":93.849484669645,"perigee_km":462.12904712779,"apogee_km":463.4452409331,"semimajor_km":6840.9241440304,"source":"CELESTRAK","updated_at":"2026-09-21T09:00:35.575340Z"}}}